Baton Rouge, LA

3:18 PM CDT on October 16, 2019 (GMT -0500)
Baton Rouge Metro-Ryan

Weather History for KBTR - August, 2019

Change the Weather History Date:

Sunday, August 25, 2019

  Actual Average Record
Temperature  
Mean Temperature 78 °F 83 °F  
Max Temperature 80 °F 92 °F 102 °F (1921)
Min Temperature 75 °F 73 °F 63 °F (1997)
Degree Days  
Heating Degree Days 0 0  
Month to date heating degree days 0 0  
Since 1 June heating degree days 0 0  
Since 1 July heating degree days 0 0  
Cooling Degree Days 13 18  
Month to date cooling degree days 492 450  
Year to date cooling degree days 2226 2055  
Since 1 June cooling degree days 1555 1490  
Growing Degree Days 28 (Base 50)    
Moisture  
Dew Point 74 °F    
Average Humidity 90    
Maximum Humidity 94    
Minimum Humidity 85    
Precipitation  
Precipitation 0.14 in 0.18 in 2.02 in (2014)
Month to date precipitation 6.70 4.80  
Year to date precipitation 48.12 40.69  
Snow  
Snow 0.00 in - - ()
Month to date snowfall 0.0  
Since 1 June snowfall 0.0  
Since 1 July snowfall 0.0  
Snow Depth 0.00 in    
Sea Level Pressure  
Sea Level Pressure 29.89 in    
Wind  
Wind Speed 8 mph (SE)    
Max Wind Speed 20 mph    
Max Gust Speed 23 mph    
Visibility 8 miles    
Events Rain    
T = Trace of Precipitation, MM = Missing Value Source: NWS Daily Summary

Daily Weather History Graph

Daily Weather History Graph

Search for Another Location

Airport or City:

Astronomy

Aug. 25, 2019 Rise Set
Actual Time 6:37 AM CDT 7:35 PM CDT
Civil Twilight 6:12 AM CDT 8:00 PM CDT
Nautical Twilight 5:42 AM CDT 8:29 PM CDT
Astronomical Twilight 5:12 AM CDT 9:00 PM CDT
Moon 1:24 AM CDT (8/25) 3:43 PM CDT (8/25)
Length of Visible Light 13h 48m
Length of Day
12h 58m
Waning Crescent, 29% of the Moon is Illuminated
Aug 25
Waning Crescent
Aug 30
New
Sep 5
First Quarter
Sep 13
Full
Sep 21
Last Quarter

Hourly Weather History & Observations

Time (CDT) Temp. Heat Index Dew Point Humidity Pressure Visibility Wind Dir Wind Speed Gust Speed Precip Events Conditions
12:53 AM 75.9 °F - 73.9 °F 94% 29.95 in 10.0 mi NE 4.6 mph - N/A   Partly Cloudy
1:53 AM 75.9 °F - 73.9 °F 94% 29.94 in 10.0 mi ENE 4.6 mph - N/A   Overcast
2:53 AM 75.9 °F - 73.9 °F 94% 29.93 in 10.0 mi ENE 4.6 mph - N/A   Partly Cloudy
3:16 AM 75.9 °F - 73.9 °F 94% 29.94 in 10.0 mi SE 6.9 mph - N/A   Mostly Cloudy
3:53 AM 75.9 °F - 73.9 °F 94% 29.93 in 10.0 mi ESE 4.6 mph - 0.00 in   Mostly Cloudy
4:53 AM 75.9 °F - 73.9 °F 94% 29.91 in 10.0 mi ESE 6.9 mph - N/A   Overcast
5:53 AM 75.0 °F - 73.0 °F 94% 29.91 in 10.0 mi East 4.6 mph - N/A   Scattered Clouds
6:53 AM 75.0 °F - 73.0 °F 94% 29.92 in 10.0 mi ENE 3.5 mph - N/A   Clear
7:53 AM 75.9 °F - 73.0 °F 91% 29.93 in 10.0 mi ESE 6.9 mph - N/A   Scattered Clouds
8:53 AM 77.0 °F - 73.0 °F 88% 29.95 in 10.0 mi SE 5.8 mph - N/A   Overcast
10:53 AM 77.0 °F - 73.0 °F 88% 29.97 in 10.0 mi South 11.5 mph - 0.00 in Rain Light Rain
11:53 AM 79.0 °F - 73.0 °F 82% 29.96 in 10.0 mi SE 8.1 mph - 0.00 in Rain Light Rain
12:24 PM 78.8 °F - 73.4 °F 83% 29.96 in 4.0 mi SSE 12.7 mph - N/A Rain Light Rain
12:53 PM 79.0 °F - 73.9 °F 84% 29.95 in 10.0 mi SSE 11.5 mph - 0.00 in   Overcast
1:53 PM 79.0 °F - 73.9 °F 84% 29.92 in 10.0 mi SE 15.0 mph - 0.00 in Rain Light Rain
2:53 PM 80.1 °F 84.2 °F 73.0 °F 79% 29.89 in 10.0 mi South 11.5 mph - 0.00 in   Mostly Cloudy
3:17 PM 77.0 °F - 73.0 °F 88% 29.88 in 2.5 mi South 12.7 mph - 0.00 in Rain Light Rain
3:22 PM 77.0 °F - 73.9 °F 90% 29.88 in 3.0 mi South 11.5 mph - 0.00 in Rain Light Rain
3:36 PM 75.9 °F - 73.0 °F 91% 29.87 in 1.8 mi SSE 11.5 mph - 0.00 in Rain Light Rain
3:40 PM 75.9 °F - 73.9 °F 94% 29.87 in 2.0 mi SSE 10.4 mph - 0.00 in Rain Light Rain
3:43 PM 75.9 °F - 73.9 °F 94% 29.87 in 3.0 mi SSE 11.5 mph - 0.00 in Rain Light Rain
3:53 PM 77.0 °F - 73.9 °F 90% 29.87 in 10.0 mi SSE 12.7 mph - 0.00 in   Overcast
4:53 PM 78.1 °F - 73.0 °F 84% 29.87 in 10.0 mi SSE 10.4 mph - N/A   Overcast
5:29 PM 77.0 °F - 73.9 °F 90% 29.87 in 6.0 mi South 10.4 mph - 0.00 in Rain Light Rain
5:36 PM 78.1 °F - 73.9 °F 87% 29.87 in 10.0 mi SSE 10.4 mph - 0.00 in   Overcast
5:53 PM 77.0 °F - 73.9 °F 90% 29.86 in 4.0 mi South 9.2 mph - 0.00 in Rain Light Rain
6:00 PM 78.1 °F - 73.9 °F 87% 29.86 in 6.0 mi SSE 10.4 mph - 0.01 in Rain Light Rain
6:22 PM 77.0 °F - 73.9 °F 90% 29.86 in 1.8 mi SSE 9.2 mph - 0.01 in Rain Light Rain
6:50 PM 75.2 °F - 73.4 °F 94% 29.85 in 3.0 mi SSE 8.1 mph - 0.08 in Rain Light Rain
6:53 PM 75.9 °F - 73.9 °F 94% 29.85 in 3.0 mi SSE 8.1 mph - 0.08 in Rain Light Rain
7:53 PM 77.0 °F - 75.0 °F 94% 29.86 in 10.0 mi South 8.1 mph - 0.01 in   Overcast
8:00 PM 77.0 °F - 75.0 °F 94% 29.86 in 10.0 mi SSE 8.1 mph - N/A   Overcast
8:53 PM 77.0 °F - 75.0 °F 94% 29.86 in 4.0 mi SSE 9.2 mph - 0.04 in Rain Rain
9:53 PM 77.0 °F - 75.0 °F 94% 29.87 in 10.0 mi SSE 9.2 mph - 0.01 in   Overcast
10:00 PM 77.0 °F - 75.0 °F 94% 29.87 in 9.0 mi SSE 8.1 mph - N/A   Overcast
10:23 PM 77.0 °F - 73.9 °F 90% 29.88 in 9.0 mi SSE 8.1 mph - N/A   Overcast
10:40 PM 77.0 °F - 73.9 °F 90% 29.88 in 9.0 mi SSE 8.1 mph - N/A   Overcast
10:53 PM 77.0 °F - 75.0 °F 94% 29.88 in 9.0 mi SSE 5.8 mph - N/A   Overcast
11:01 PM 77.0 °F - 75.0 °F 94% 29.88 in 9.0 mi SE 6.9 mph - N/A   Overcast
11:24 PM 77.0 °F - 75.0 °F 94% 29.88 in 9.0 mi SSE 4.6 mph - N/A   Overcast
11:53 PM 77.0 °F - 75.0 °F 94% 29.88 in 9.0 mi SSE 4.6 mph - N/A   Overcast